Zurück zum Katalog

OPS 4682 DEB

LostPO
NORAD 38435·DEBRIS·🇺🇸 United States

Gestartet Apr 3, 1965 von Vandenberg Space Force Base

Loading…

Nächste Überflüge (nächste 24 Stunden)

TLE

VeraltetSource: Space-Track

Epoche: Sep 20, 2014, 06:15 UTC

1 38435U 65027EQ  14263.26088209 +.00000775 +00000-0 +26490-2 0  9996
2 38435 090.2765 263.2550 0045385 113.2304 247.3605 12.96996888584725

Verfolge OPS 4682 DEB in Echtzeit mit AllMySat

Download on the App Store